This demonstration page uses our WeatherBlox Daily Observations layout. Learn more.

Left ArrowRight Arrow

38.88101, -77.10428

Hourly Observations for March 11, 2019

Temp ( °F °C ) Dew Point ( °F °C ) Humidity (%) Winds ( mph kmh ) Pressure ( in mb ) Visibility ( mi km ) Precip ( " mm )
12:52 am 00:52 Cloudy 47 8.3 44 6.7 90 90 Calm 30.02 1017 10 16.0934 0 0
1:52 am 01:52 Cloudy 52 11.1 38 3.3 59 59 N 8 13 30.04 1017 10 16.0934 0 0
2:52 am 02:52 Cloudy 56 13.3 33 0.6 42 42 NW 9 15 30.07 1018 10 16.0934 0 0
3:52 am 03:52 Cloudy 56 13.3 33 0.6 42 42 NW 8 13 30.08 1019 10 16.0934 0 0
4:52 am 04:52 Cloudy 55 12.8 33 0.6 44 44 NW 9 15 30.09 1019 10 16.0934 0 0
5:52 am 05:52 Cloudy 54 12.2 32 0 43 43 NNW 12 19 30.12 1020 10 16.0934 0 0
6:52 am 06:52 Mostly Cloudy 53 11.7 30 -1.1 41 41 WNW 14 22 30.14 1021 10 16.0934 0 0
7:52 am 07:52 Mostly Cloudy 52 11.1 29 -1.7 41 41 NW 12 19 30.15 1021 10 16.0934 0 0
8:52 am 08:52 Mostly Cloudy 52 11.1 30 -1.1 43 43 NW 6 9 30.16 1022 10 16.0934 0 0
9:52 am 09:52 Mostly Cloudy 54 12.2 28 -2.2 37 37 W 7 11 30.19 1022 10 16.0934 0 0
10:52 am 10:52 Mostly Cloudy 55 12.8 22 -5.6 28 28 WNW 10 17 30.17 1022 10 16.0934 0 0
11:52 am 11:52 Cloudy 57 13.9 21 -6.1 25 25 WNW 10 17 30.18 1022 10 16.0934 0 0
12:52 pm 12:52 Cloudy 58 14.4 20 -6.7 23 23 WSW 12 19 30.17 1022 10 16.0934 0 0
1:13 pm 13:13 Cloudy 58 14.4 20 -6.7 23 23 W 12 19 30.16 1021 10 16.0934 0 0
1:52 pm 13:52 Cloudy 59 15 20 -6.7 22 22 WNW 13 20 30.14 1021 10 16.0934 0 0
2:52 pm 14:52 Cloudy 60 15.6 17 -8.3 19 19 W 15 24 30.12 1020 10 16.0934 0 0
3:52 pm 15:52 Mostly Cloudy 61 16.1 20 -6.7 20 20 WSW 12 19 30.11 1020 10 16.0934 0 0
4:52 pm 16:52 Mostly Cloudy 61 16.1 18 -7.8 19 19 WSW 12 19 30.09 1019 10 16.0934 0 0
5:52 pm 17:52 Partly Cloudy 62 16.7 19 -7.2 19 19 SW 10 17 30.08 1019 10 16.0934 0 0
6:52 pm 18:52 Partly Cloudy 60 15.6 19 -7.2 20 20 WSW 9 15 30.09 1019 10 16.0934 0 0
7:52 pm 19:52 Partly Cloudy 58 14.4 20 -6.7 23 23 WNW 8 13 30.12 1020 10 16.0934 0 0
8:52 pm 20:52 Partly Cloudy 56 13.3 19 -7.2 24 24 NNW 23 37 30.15 1021 10 16.0934 0 0
9:52 pm 21:52 Mostly Clear 54 12.2 17 -8.3 23 23 WNW 9 15 30.14 1021 10 16.0934 0 0
10:52 pm 22:52 Mostly Cloudy 54 12.2 18 -7.8 24 24 NW 15 24 30.14 1021 10 16.0934 0 0
11:52 pm 23:52 Mostly Clear 52 11.1 19 -7.2 27 27 WNW 10 17 30.17 1022 10 16.0934 0 0

Powered by AerisWeather